Wind_Speed
32 32 31 30 29 27 26 25 24 24 23 21 19 18 16 16 17 18 20 20 20 19 19 16 15 13 10 8 6 4 3 3 2 3 3 5 7 9 10 10 12 13 15
29 30 31 31 31 30 28 26 26 25 24 23 21 19 17 16 16 16 20 22 21 21 19 18 17 17 15 14 12 10 10 12 12 10 12 13 14 14 15 17 17 18 19
29 30 32 32 33 32 30 28 28 27 26 25 24 21 19 17 17 16 16 18 20 22 22 21 19 20 18 18 18 18 18 19 21 21 18 20 21 23 24 24 24 25 25
31 31 33 34 34 32 31 30 29 28 27 26 24 22 21 20 18 17 16 15 14 16 19 21 23 23 22 22 23 23 23 24 26 28 28 28 27 27 31 31 31 32 34
31 31 33 33 33 33 33 32 30 29 26 25 25 24 24 23 22 19 16 15 14 14 15 16 17 18 20 22 24 24 26 28 29 30 32 33 30 31 32 33 36 36 37
25 26 27 31 31 31 32 31 30 27 26 26 25 24 24 25 23 21 20 18 17 17 17 17 17 18 19 21 22 23 25 27 30 30 29 31 28 29 28 31 35 37 40
27 25 23 26 28 27 28 29 29 27 27 25 23 23 22 23 23 22 20 20 20 19 19 18 19 19 20 20 21 22 25 26 28 30 32 32 34 36 39 42 42 43 46
23 18 18 20 23 23 25 25 25 25 24 23 22 20 19 20 20 20 20 22 22 20 20 20 21 21 22 24 26 29 29 32 35 37 40 37 36 37 40 42 46 49 48
26 20 17 17 18 19 20 20 19 19 20 19 20 20 21 21 20 21 23 25 24 22 23 24 25 26 28 30 31 32 32 33 36 37 38 38 37 37 41 43 42 44 43
20 19 21 22 20 18 18 17 17 19 20 21 22 22 23 24 25 27 29 30 31 29 29 30 31 32 33 34 35 34 33 32 33 32 31 33 33 31 30 30 31 39 42
24 21 21 19 19 18 16 16 19 21 23 23 24 25 26 27 28 29 31 35 35 35 35 35 35 36 36 37 36 37 36 34 34 34 33 35 34 31 31 33 39 44 45
28 25 21 20 19 19 17 18 20 22 22 23 23 24 24 24 24 26 28 31 33 36 38 38 39 39 39 40 39 37 36 35 34 33 34 34 30 30 34 40 44 50 53
32 30 28 25 23 24 22 23 23 21 23 24 24 23 21 21 23 26 27 29 30 31 32 33 36 38 40 40 38 36 34 32 31 33 33 28 30 34 40 46 50 54 57
38 34 32 30 30 29 29 27 21 24 26 27 24 23 22 23 24 24 26 28 28 29 30 31 32 33 34 32 32 31 28 30 30 29 30 30 33 38 43 49 54 56 59
36 35 34 33 32 33 33 32 29 27 29 31 28 26 27 28 28 26 29 28 29 28 28 28 29 29 28 28 26 25 28 28 28 28 31 33 37 41 47 51 54 57 58
27 29 31 34 36 36 37 37 33 29 29 30 32 32 34 35 32 31 31 29 28 29 29 28 27 25 26 24 24 25 27 27 28 30 33 36 39 45 50 52 55 53 52
31 33 36 37 37 37 38 38 38 37 35 34 35 38 37 34 32 31 29 28 29 29 27 26 25 23 23 26 26 26 26 27 28 31 35 38 43 49 50 51 48 48 46
27 28 31 35 38 40 40 40 40 40 39 40 36 34 32 32 31 32 32 31 30 26 24 24 23 25 26 26 25 26 28 29 30 33 36 41 45 46 45 44 44 43 42
20 18 20 23 25 27 31 38 42 41 37 34 33 33 31 31 32 30 30 27 25 25 24 24 25 25 26 27 27 27 28 30 31 34 39 42 44 42 40 40 38 37 38
20 20 20 22 21 18 20 24 28 30 31 33 34 35 31 26 26 24 24 25 24 25 25 27 28 29 30 29 28 29 30 31 35 38 39 40 40 38 36 33 33 33 33
20 18 21 23 17 11 9 9 11 15 22 27 29 27 23 24 26 27 23 30 27 26 28 31 31 30 29 30 30 31 33 35 37 38 39 39 37 34 32 30 30 30 30
22 22 20 17 14 10 8 8 9 11 14 18 21 23 24 25 28 29 32 30 30 34 32 30 30 30 30 31 33 35 36 37 38 39 38 38 37 34 30 29 29 29 28
21 23 27 26 24 18 14 12 12 13 15 20 24 26 27 30 34 36 34 34 34 32 30 30 30 31 34 36 37 39 39 39 40 41 40 39 38 35 31 30 29 26 26
24 28 32 30 31 27 21 17 18 17 17 21 27 30 32 33 32 32 32 32 31 30 30 31 32 34 36 38 39 41 41 39 37 35 34 33 32 32 30 26 28 27 24
33 32 34 34 29 24 24 20 22 21 24 21 23 28 26 28 32 31 30 30 31 32 32 33 34 35 36 36 35 35 35 35 36 34 32 31 29 27 24 22 25 27 25
40 37 30 31 25 24 25 24 21 23 27 28 27 30 29 35 32 29 29 29 30 32 33 34 34 33 33 34 34 34 35 33 32 31 28 24 22 23 23 23 27 29 30
Wind_Direction
214 211 214 214 214 214 214 216 218 218 218 217 214 214 218 220 218 212 206 206 202 202 203 199 197 202 203 205 203 204 230 248 235 271 278 299 303 306 307 312 313 315 316
213 215 214 217 216 216 214 215 220 222 221 219 218 214 215 219 219 214 214 214 210 212 215 213 215 224 224 229 236 246 257 271 267 251 266 274 277 278 283 290 292 296 299
209 214 214 216 217 217 216 215 219 221 220 221 223 219 218 219 217 217 216 218 219 219 223 225 225 232 236 244 251 254 259 265 271 272 270 272 278 284 285 285 288 293 293
209 212 216 214 216 217 219 217 219 221 222 224 225 225 221 221 217 213 212 215 215 219 226 232 236 239 244 250 256 261 266 269 274 278 279 280 280 282 285 290 289 286 285
214 216 216 217 214 216 218 219 217 221 224 225 227 225 224 225 221 218 219 222 227 232 236 238 241 244 246 251 256 261 266 270 273 277 281 283 285 285 286 285 285 286 282
216 215 217 217 217 214 215 220 221 221 225 226 228 229 227 225 223 225 229 236 241 244 245 246 247 249 251 254 257 260 261 265 269 274 282 285 292 289 288 286 284 286 289
222 217 214 216 216 214 215 218 220 222 226 230 229 228 227 225 225 229 238 245 249 251 251 251 250 254 255 258 259 263 268 274 277 282 287 292 295 297 295 293 290 288 290
210 197 195 203 207 208 212 213 213 215 220 225 229 232 233 232 236 240 245 251 252 251 251 250 253 252 254 258 262 265 271 275 277 278 284 293 293 291 289 288 288 287 290
212 202 190 187 187 196 204 204 207 213 218 223 227 232 238 243 248 249 252 255 256 254 254 253 256 258 260 264 269 274 278 280 281 282 284 285 286 285 283 286 292 294 296
197 202 203 202 200 202 206 209 215 221 227 234 239 243 245 246 249 254 257 260 261 262 262 261 263 266 269 271 275 279 283 286 287 289 288 290 292 291 289 288 293 291 295
195 189 191 194 200 202 203 210 222 230 236 241 243 244 247 250 253 255 258 263 266 267 267 267 268 270 273 276 279 282 287 288 290 291 293 297 295 294 300 298 302 300 300
200 199 187 189 198 199 208 215 221 225 228 232 236 241 243 247 252 257 261 265 267 267 267 268 269 269 270 272 276 279 280 281 284 287 293 296 293 298 304 306 306 306 306
203 207 214 210 218 220 223 230 220 231 238 242 244 246 253 258 258 257 260 265 269 272 273 273 272 271 271 271 272 275 278 282 286 291 291 293 298 304 305 306 306 307 308
217 218 221 233 236 236 235 234 231 253 252 256 245 247 253 262 265 265 267 268 268 270 271 270 270 271 270 271 270 271 272 280 282 284 288 295 301 303 307 307 307 309 310
226 232 238 240 242 240 236 238 238 240 245 248 251 256 264 269 273 268 271 271 269 271 274 275 276 274 269 265 264 266 275 276 280 284 291 297 302 305 306 307 309 311 312
231 236 240 241 244 245 247 248 247 244 242 249 257 262 270 269 271 271 274 280 279 276 275 274 273 271 268 264 267 271 273 276 281 287 293 297 301 304 306 310 312 314 315
230 234 237 240 244 248 250 251 252 253 258 260 266 270 268 268 266 265 269 275 273 271 271 269 267 269 268 268 270 270 272 277 283 288 291 296 303 306 311 313 314 315 314
227 234 240 244 246 246 246 248 252 257 261 266 264 264 263 261 260 260 263 269 268 266 267 266 267 268 268 268 269 271 275 280 285 288 292 298 303 309 312 312 314 316 318
236 245 248 248 249 245 245 246 249 253 254 253 255 258 258 258 259 260 262 263 261 266 268 266 267 269 274 277 277 276 279 283 285 288 293 299 304 307 310 312 316 319 322
248 255 255 254 250 244 240 242 245 247 250 255 257 258 258 261 261 255 256 257 259 260 264 267 271 277 278 277 278 280 282 282 286 290 295 299 302 305 309 313 316 321 315
237 244 249 248 236 220 224 236 245 256 254 253 254 250 252 259 277 258 265 262 260 262 271 276 277 275 274 276 279 280 283 286 289 292 294 297 298 300 305 311 314 315 305
230 230 225 217 216 225 239 254 268 278 278 273 271 262 261 264 250 261 268 270 270 275 276 274 273 273 274 276 277 280 282 284 286 288 288 289 290 295 298 305 305 300 298
234 240 243 236 239 249 249 256 271 277 279 272 269 264 260 256 256 264 265 265 267 268 267 267 268 271 274 276 277 279 281 284 284 284 283 283 286 287 287 295 293 284 294
243 248 251 250 255 256 258 276 283 283 277 263 258 256 256 257 259 262 263 264 263 261 261 264 269 274 278 281 285 286 286 285 285 287 289 289 285 282 285 283 277 270 280
262 257 256 260 262 268 266 271 267 263 262 271 271 260 265 269 269 264 260 259 260 262 266 271 276 281 283 283 282 283 286 288 288 289 289 286 281 276 273 271 273 268 271
260 260 258 249 259 252 254 259 261 249 257 247 238 244 265 262 259 252 254 259 265 270 276 280 281 280 280 281 282 283 284 285 286 287 289 282 271 268 264 266 266 269 264
Height
3174 3178 3183 3188 3192 3197 3201 3205 3208 3212 3216 3219 3222 3225 3227 3228 3230 3232 3234 3236 3239 3242 3244 3246 3247 3248 3249 3250 3250 3251 3251 3251 3251 3251 3250 3250 3249 3248 3246 3245 3243 3241 3239
3170 3174 3178 3183 3187 3191 3196 3201 3204 3209 3213 3216 3219 3221 3223 3225 3228 3229 3231 3233 3236 3239 3241 3242 3244 3245 3247 3248 3248 3249 3249 3248 3248 3249 3248 3248 3247 3245 3244 3242 3241 3239 3236
3164 3168 3172 3177 3181 3186 3191 3196 3200 3204 3208 3212 3215 3218 3220 3222 3224 3226 3228 3230 3233 3235 3237 3239 3241 3242 3243 3244 3245 3245 3245 3245 3244 3243 3244 3244 3242 3241 3239 3238 3236 3234 3231
3158 3162 3166 3171 3176 3181 3187 3191 3195 3200 3204 3208 3211 3215 3217 3219 3222 3224 3226 3228 3230 3232 3234 3236 3238 3239 3240 3241 3241 3241 3241 3240 3239 3238 3237 3236 3236 3236 3232 3231 3229 3227 3223
3152 3156 3160 3166 3170 3176 3181 3186 3190 3194 3200 3204 3206 3210 3213 3215 3218 3221 3223 3226 3227 3229 3230 3232 3233 3234 3235 3236 3236 3237 3235 3234 3233 3232 3229 3228 3228 3227 3225 3223 3218 3217 3214
3147 3151 3156 3161 3165 3170 3176 3181 3185 3190 3194 3198 3201 3205 3208 3211 3215 3218 3220 3222 3224 3225 3226 3227 3228 3229 3230 3231 3231 3230 3229 3227 3226 3225 3222 3219 3219 3218 3218 3214 3210 3207 3202
3143 3147 3151 3156 3160 3166 3171 3176 3180 3185 3190 3193 3196 3200 3203 3207 3211 3214 3216 3217 3218 3220 3221 3222 3223 3224 3224 3225 3225 3224 3222 3221 3220 3218 3215 3214 3212 3210 3207 3203 3201 3198 3194
3140 3143 3147 3151 3157 3161 3166 3171 3175 3180 3184 3188 3192 3196 3199 3202 3206 3209 3210 3211 3212 3213 3215 3216 3216 3218 3218 3218 3218 3217 3217 3215 3214 3212 3208 3207 3205 3203 3198 3194 3190 3186 3183
3137 3140 3144 3149 3153 3157 3162 3167 3172 3176 3180 3184 3188 3191 3194 3197 3199 3202 3202 3203 3205 3207 3208 3209 3210 3210 3211 3211 3210 3209 3209 3208 3205 3204 3200 3197 3195 3193 3189 3184 3180 3175 3171
3134 3138 3142 3146 3151 3155 3160 3164 3168 3172 3176 3179 3182 3186 3188 3191 3193 3195 3195 3195 3196 3199 3201 3201 3202 3202 3202 3201 3200 3200 3199 3199 3196 3194 3192 3189 3186 3183 3180 3175 3171 3167 3161
3131 3135 3140 3144 3148 3152 3156 3159 3163 3166 3170 3173 3176 3179 3181 3183 3185 3186 3187 3187 3188 3190 3191 3192 3193 3193 3192 3191 3191 3190 3190 3189 3187 3184 3183 3181 3179 3177 3174 3169 3165 3158 3153
3126 3131 3137 3141 3144 3148 3152 3155 3158 3160 3163 3166 3169 3172 3174 3177 3179 3180 3180 3180 3180 3181 3181 3182 3183 3183 3183 3182 3182 3182 3181 3179 3178 3175 3174 3173 3171 3169 3166 3162 3158 3151 3147
3122 3127 3131 3136 3140 3144 3147 3149 3152 3155 3158 3161 3163 3166 3169 3171 3172 3172 3173 3173 3173 3173 3172 3172 3172 3173 3173 3173 3173 3172 3171 3170 3169 3166 3165 3165 3163 3160 3157 3151 3146 3139 3132
3117 3122 3126 3130 3134 3137 3141 3144 3146 3149 3152 3155 3158 3160 3161 3162 3163 3164 3164 3164 3165 3164 3164 3163 3163 3162 3162 3163 3163 3163 3163 3161 3160 3158 3157 3156 3154 3152 3148 3141 3133 3126 3118
3111 3116 3120 3124 3127 3130 3133 3136 3139 3143 3147 3149 3150 3151 3152 3154 3155 3154 3155 3155 3155 3154 3153 3154 3153 3154 3154 3154 3155 3155 3154 3153 3151 3150 3149 3148 3145 3142 3137 3130 3123 3114 3106
3105 3110 3113 3117 3121 3123 3126 3129 3131 3135 3137 3139 3140 3142 3143 3144 3143 3143 3145 3144 3144 3144 3144 3145 3145 3145 3145 3146 3146 3146 3145 3145 3144 3142 3140 3138 3135 3131 3125 3119 3112 3104 3097
3100 3103 3106 3109 3112 3115 3118 3121 3123 3125 3127 3128 3130 3131 3132 3132 3133 3135 3136 3136 3135 3135 3135 3136 3136 3137 3138 3138 3138 3137 3136 3136 3135 3132 3130 3128 3125 3120 3114 3108 3101 3096 3089
3094 3096 3098 3100 3103 3106 3108 3111 3113 3115 3117 3118 3119 3120 3121 3123 3124 3125 3126 3126 3126 3127 3127 3128 3129 3129 3129 3129 3129 3129 3128 3127 3126 3124 3121 3119 3115 3110 3104 3099 3094 3087 3079
3086 3088 3090 3092 3094 3095 3096 3099 3102 3105 3107 3108 3110 3112 3113 3114 3114 3115 3116 3116 3118 3119 3119 3120 3120 3121 3121 3121 3121 3120 3119 3118 3117 3115 3112 3108 3103 3099 3095 3091 3086 3079 3072
3076 3079 3082 3084 3086 3087 3088 3091 3094 3096 3097 3099 3101 3102 3104 3105 3106 3107 3108 3109 3110 3111 3111 3112 3112 3112 3112 3111 3111 3110 3109 3108 3106 3104 3102 3098 3094 3090 3086 3083 3078 3072 3068
3070 3073 3076 3077 3079 3081 3082 3084 3086 3088 3090 3091 3092 3094 3096 3097 3098 3099 3100 3100 3101 3102 3102 3102 3102 3102 3101 3101 3100 3099 3098 3097 3095 3093 3091 3088 3084 3082 3077 3073 3070 3067 3064
3064 3068 3070 3072 3074 3076 3078 3080 3081 3083 3084 3085 3085 3086 3088 3089 3091 3090 3091 3092 3092 3093 3093 3092 3092 3092 3091 3090 3089 3088 3087 3086 3084 3082 3080 3077 3075 3072 3069 3066 3063 3061 3058
3058 3061 3064 3066 3068 3069 3070 3072 3073 3074 3075 3076 3077 3078 3079 3080 3081 3081 3082 3082 3083 3083 3083 3083 3083 3082 3082 3081 3080 3079 3077 3076 3073 3071 3069 3067 3063 3061 3060 3058 3056 3054 3051
3048 3053 3056 3057 3060 3061 3061 3062 3062 3063 3065 3066 3067 3068 3069 3070 3071 3072 3073 3073 3073 3073 3073 3073 3073 3072 3071 3070 3069 3067 3066 3064 3062 3059 3057 3054 3052 3050 3050 3050 3048 3047 3045
3036 3040 3043 3045 3048 3050 3053 3053 3053 3054 3056 3055 3055 3056 3058 3060 3062 3062 3063 3064 3064 3064 3064 3064 3063 3062 3061 3060 3058 3056 3053 3051 3050 3048 3046 3044 3042 3041 3040 3040 3040 3039 3038
3026 3029 3031 3035 3037 3040 3043 3044 3044 3045 3046 3047 3047 3047 3047 3049 3051 3052 3053 3054 3055 3055 3055 3055 3054 3052 3051 3050 3048 3046 3044 3042 3040 3037 3036 3035 3035 3033 3032 3032 3032 3031 3030